This is the latest recevied weather packets stored in our database for station/object KC4BAM. If no packets are shown the sender has not sent any weather packets the latest 1 day(s).
| Time | Temp. | Humidity | Pressure | Rain* | Wind** | Luminosity | Snow |
|---|---|---|---|---|---|---|---|
| 1836274766 | 20.56° C | 90% | 1007.6 hPa | 0 mm | 0 m/s | 0 W/m² | - |
| 1836274464 | 20.56° C | 90% | 1007.5 hPa | 0 mm | 0 m/s | 0 W/m² | - |
| 1836274318 | 20.56° C | 91% | 1007.8 hPa | 0 mm | 0 m/s | 0 W/m² | - |
| 1836274163 | 20° C | 90% | 1007.5 hPa | 0 mm | 0 m/s | 0 W/m² | - |
| 1778054018 | 11.11° C | 96% | 999.4 hPa | 0 mm | 0.45 m/s, 212° | 0 W/m² | - |
| 1778053715 | 11.67° C | 95% | 999 hPa | 0 mm | 0 m/s | 0 W/m² | - |
| 1778053412 | 11.67° C | 95% | 999.1 hPa | 0 mm | 0.45 m/s, 190° | 0 W/m² | - |
| 1778053110 | 11.67° C | 95% | 999.1 hPa | 0 mm | 0.45 m/s, 185° | 0 W/m² | - |
| 1778052807 | 11.67° C | 95% | 999 hPa | 1.27 mm | 0.45 m/s, 194° | 0 W/m² | - |
| 1778052504 | 11.67° C | 95% | 999 hPa | 1.27 mm | 0.45 m/s, 204° | 0 W/m² | - |
| 1778052201 | 11.67° C | 95% | 999.6 hPa | 0 mm | 0.45 m/s, 217° | 0 W/m² | - |
| 1778051899 | 11.67° C | 95% | 998.8 hPa | 0 mm | 0.45 m/s, 200° | 0 W/m² | - |
| 1778051597 | 11.67° C | 95% | 998.5 hPa | 0 mm | 0.45 m/s, 211° | 0 W/m² | - |
| 1778051294 | 11.67° C | 95% | 998.8 hPa | 0 mm | 0.45 m/s, 240° | 0 W/m² | - |
| 1778050991 | 11.67° C | 94% | 998.6 hPa | 0 mm | 0.45 m/s, 220° | 0 W/m² | - |
| 1778050688 | 12.22° C | 94% | 998.2 hPa | 1.78 mm | 0.45 m/s, 221° | 0 W/m² | - |
| 1778050385 | 12.22° C | 94% | 998.4 hPa | 1.78 mm | 0 m/s | 0 W/m² | - |
| 1778050082 | 12.22° C | 94% | 998.4 hPa | 0 mm | 0.89 m/s, 206° | 0 W/m² | - |
| 1778049777 | 12.78° C | 94% | 998.4 hPa | 0 mm | 0.89 m/s, 177° | 0 W/m² | - |
| 1778049475 | 12.78° C | 94% | 998.3 hPa | 1.27 mm | 0.45 m/s, 208° | 0 W/m² | - |
| 1778049172 | 12.78° C | 94% | 998.1 hPa | 1.27 mm | 0.45 m/s, 199° | 0 W/m² | - |
| 1778048871 | 13.33° C | 94% | 998.2 hPa | 0 mm | 0.45 m/s, 209° | 0 W/m² | - |
| 1778048568 | 13.89° C | 93% | 998.3 hPa | 0 mm | 0.89 m/s, 198° | 0 W/m² | - |
| 1778048263 | 14.44° C | 93% | 998 hPa | 0 mm | 0.89 m/s, 210° | 0 W/m² | - |
| 1778047961 | 14.44° C | 93% | 998.2 hPa | 0 mm | 0.45 m/s, 188° | 0 W/m² | - |
* Rain latest hour (hover to see other rain measurements)
** Current wind speed in m/s (hover to see current wind gust speed)